Location: Coulmiers
(47.9314°N, 1.6646°E)
Time: 13:18:18
(UTC+00:00)

Daily predictions for brighter satellites

Satellite Brightness Start Highest point End
(mag) Time Altitude Azimuth Time Altitude Azimuth Time Altitude Azimuth
NOAA 6 4.4 16:38:24 10° S 16:43:34 73° WSW 16:48:44 10° NNW
Cosmos 1633 2.9 16:44:12 10° N 16:47:44 44° ENE 16:51:13 10° SSE
CZ-4B R/B 3.2 16:45:57 10° N 16:49:04 33° WNW 16:52:12 10° SW
CORIOLIS 4.4 16:46:20 10° SE 16:51:31 49° ENE 16:56:46 10° N
Cosmos 1356 Rocket 3.4 16:48:08 10° S 16:52:18 69° E 16:56:34 10° NNE
Cosmos 1464 Rocket 4.1 16:46:34 10° N 16:52:36 54° ENE 16:58:34 10° SSE
Cosmos 1680 Rocket 3.9 16:49:12 10° S 16:54:07 43° ESE 16:59:04 10° NE
NOAA 12 4.5 16:53:21 10° SE 16:58:21 42° ENE 17:03:20 10° N
YAOGAN 1 4.0 16:59:32 10° E 17:02:20 17° ENE 17:05:09 10° NNE
Cosmos 1470 Rocket 4.3 16:59:03 10° N 17:03:04 31° ENE 17:07:03 10° SE
ALOS 3.9 16:59:01 10° SSW 17:03:22 39° W 17:07:46 10° NNW
CZ-4 R/B 2.7 17:00:59 10° ESE 17:03:57 20° ENE 17:06:53 10° NNE
PSLV R/B 3.9 17:00:26 10° NNE 17:04:41 82° ESE 17:08:53 10° SSW
Cosmos 1072 Rocket 4.4 16:58:33 10° N 17:04:43 72° E 17:10:55 10° SSE
Cosmos 724 4.3 16:58:55 10° NW 17:04:49 86° NE 17:10:36 10° SE
SMAP 3.0 17:02:04 10° SSE 17:06:42 73° ENE 17:11:22 10° N
AQUARIUS 4.1 17:02:27 10° SSE 17:06:55 67° ENE 17:11:24 10° N
Cosmos 1980 Rocket 2.7 17:03:07 10° S 17:08:22 41° ESE 17:13:40 10° NE
ASTEX 1 4.3 17:05:01 10° N 17:09:52 52° WNW 17:14:41 10° SSW
USA 215 4.0 17:04:32 11° ENE 17:10:21 40° N 17:16:21 10° WNW
ERBS 3.2 17:07:32 10° W 17:10:42 39° NNW 17:13:28 13° NE
SL-16 R/B 3.8 17:08:06 10° SE 17:10:49 14° E 17:12:09 13° E
Cosmos 1862 3.2 17:07:13 10° N 17:11:13 68° E 17:15:11 10° SSE
Cosmos 2297 Rocket 4.0 17:09:13 10° NW 17:14:22 36° WSW 17:19:28 10° S
Cosmos 2227 Rocket 3.8 17:10:10 10° NW 17:15:23 38° WSW 17:20:33 10° S
Lacrosse 4 Rocket 1.7 17:11:32 10° SW 17:15:33 62° NW 17:19:35 10° NNE
Cosmos 2322 Rocket 3.8 17:14:14 10° ESE 17:16:38 13° E 17:17:03 13° E
NOSS 2-3 (E) 3.7 17:15:43 10° SW 17:20:05 81° SE 17:24:53 12° NE
Cosmos 923 Rocket 4.0 17:16:01 10° SSW 17:21:14 88° WNW 17:26:29 10° NNE
SeaSat 1 2.8 17:17:41 10° ESE 17:22:18 42° NE 17:26:57 10° NNW
Cosmos 1624 Rocket 4.0 17:18:16 10° NNW 17:23:37 65° ENE 17:28:53 10° SSE
USA 229 DEB 4.2 17:17:18 10° WSW 17:23:47 55° NW 17:30:38 10° NE
USA 229 4.2 17:17:24 10° WSW 17:23:53 55° NW 17:30:44 10° NE
Cosmos 2056 Rocket 3.4 17:19:58 10° NNW 17:25:05 64° ENE 17:30:15 10° SSE
BREEZE-M DEB (TANK) 2.9 17:16:40 10° W 17:25:48 75° N 17:27:57 21° ENE
NOSS 3-1 (C) 4.0 17:20:21 10° WSW 17:25:54 53° NW 17:32:25 10° NE
SKYMED 2 4.4 17:22:19 10° NNE 17:26:10 30° E 17:29:59 10° SSE
Cosmos 2263 Rocket 2.5 17:22:35 10° NNW 17:27:52 41° NE 17:33:07 10° ESE
NOSS 3-1 (A) 3.6 17:23:14 10° SW 17:28:51 71° NW 17:35:11 11° NE
NOSS 2-3 (D) 3.7 17:25:29 10° SW 17:29:52 89° SE 17:34:17 14° NE
YAOGAN 6 2.9 17:31:03 10° SE 17:34:18 38° ENE 17:37:34 10° N
H-2A R/B 3.2 17:30:37 10° S 17:34:24 65° W 17:38:10 10° NNW
Cosmos 2369 4.2 17:38:48 10° SW 17:44:25 62° WNW 17:50:06 10° NNE
Cosmos 1697 Rocket 3.1 17:39:34 10° SW 17:45:11 65° WNW 17:50:49 10° NNE
CENTAUR R/B 3.9 17:40:53 10° NW 17:47:32 32° NNE 17:51:27 22° ENE
COBE Rocket 3.8 17:43:57 10° N 17:48:43 82° WNW 17:53:22 10° SSW
Envisat 2.9 17:43:58 10° SSE 17:49:03 88° E 17:54:10 10° NNW
Cosmos 1400 Rocket 4.1 17:47:10 10° SSE 17:49:31 23° ESE 17:49:31 23° ESE
Cosmos 1151 Rocket 3.0 17:46:41 10° S 17:51:04 90° NE 17:55:29 10° N
Cosmos 1633 Rocket 4.1 17:48:08 10° NNW 17:52:25 49° W 17:56:40 10° SSW
Cosmos 2034 Rocket 4.2 17:47:16 10° NNW 17:53:39 77° W 18:00:01 10° S
Okean-O 3.1 17:50:21 10° S 17:54:44 63° WSW 17:59:10 10° NNW
Cosmos 158 Rocket 3.9 17:52:32 10° SSW 17:57:48 84° ESE 18:02:06 15° NNE
Cosmos 2278 4.2 17:55:59 10° SW 18:01:36 61° WNW 18:07:05 11° NNE
GENESIS II 4.3 17:58:14 10° SSW 18:02:13 63° SE 18:03:14 45° ENE
Cosmos 2360 4.4 17:57:21 10° SW 18:03:02 71° WNW 18:08:10 13° NNE
Cosmos 1420 Rocket 3.9 17:59:01 10° NNW 18:04:11 65° ENE 18:09:20 10° SSE
FengYun 1-2 T 4.2 17:59:52 10° SSE 18:05:23 89° WSW 18:10:55 10° NNW
Cosmos 1328 Rocket 4.1 18:02:49 10° SSW 18:07:10 58° WNW 18:11:30 10° N
Cosmos 1634 Rocket 3.9 18:02:50 10° N 18:09:01 66° ENE 18:15:08 10° SSE
Cosmos 1844 Rocket 3.9 18:04:34 10° N 18:08:24 23° NE 18:08:24 23° NE
Cosmos 1933 Rocket 3.6 18:06:13 10° NNW 18:10:34 78° W 18:14:55 10° S
ATLAS 3B R/B 3.6 18:05:52 10° NNW 18:11:33 28° NNE 18:12:57 26° NE
ATLAS 2AS CENTAUR R/B 4.4 18:06:38 10° SSE 18:09:49 18° SE 18:09:49 18° SE
Geosat 3.9 18:10:04 27° NE 18:12:54 78° ESE 18:17:55 10° SSW
Cosmos 1452 Rocket 3.4 18:08:12 10° NNW 18:13:29 63° ENE 18:16:36 24° SE
Cosmos 2228 Rocket 3.0 18:09:13 10° S 18:13:40 69° E 18:16:06 27° NNE
Cosmos 1515 Rocket 3.6 18:09:35 10° SSW 18:13:58 78° W 18:18:15 11° N
COSMO-SKYMED 1 2.5 18:10:49 16° NNE 18:14:19 90° E 18:18:40 10° SSW
USA 238 DEB 3.9 18:08:41 10° NW 18:15:41 55° NE 18:18:44 34° E
USA 238 3.9 18:08:47 10° NW 18:15:47 54° NE 18:18:47 34° E
Cosmos 44 3.9 18:11:46 10° NNW 18:15:05 33° NNE 18:15:05 33° NNE
USA 116 4.3 18:14:05 24° NNE 18:17:06 66° ESE 18:22:19 10° S
ISS -1.3 18:15:14 10° S 18:16:05 14° S 18:16:05 14° S
NOSS 3-2 (A) 4.1 18:11:19 10° NW 18:18:27 54° NE 18:21:46 34° E
Cosmos 2278 Rocket 4.3 18:16:49 10° N 18:17:39 11° NNE 18:17:39 11° NNE
Cosmos 2142 Rocket 4.5 18:13:49 10° N 18:20:11 62° ENE 18:26:26 10° SSE
COSMOS 2455 3.6 18:15:11 10° S 18:19:45 32° SE 18:19:45 32° SE
APEX 4.2 18:18:53 10° WSW 18:21:42 30° NW 18:22:08 28° NW
CSL-04 Debris 4.1 18:17:43 10° SSE 18:23:13 89° WSW 18:28:45 10° NNW
Cosmos 2279 Rocket 4.0 18:18:39 10° N 18:24:46 54° ENE 18:30:52 10° SSE
Tsikada Rocket 4.2 18:18:45 10° SSW 18:25:08 74° W 18:31:36 10° N
NOAA 11 4.0 18:20:04 10° SSE 18:25:27 69° ENE 18:30:53 10° N
Cosmos 1606 2.9 18:27:50 10° SSW 18:31:34 65° W 18:32:01 58° NW
SL-8 R/B 3.7 18:27:03 10° WSW 18:31:50 63° SSE 18:32:04 62° SE
Ariane Rocket 3.3 18:32:53 49° NNE 18:32:53 49° NNE 18:37:00 10° N
CSL-04 Rocket 3.7 18:27:23 10° S 18:32:43 76° WSW 18:38:02 10° NNW
YAOGAN 1 3.0 18:33:44 10° S 18:38:00 61° W 18:42:19 10° NNW
CZ-4 R/B 2.5 18:34:47 10° S 18:38:42 44° W 18:42:35 10° NNW
Meteor 1-26 Rocket 4.2 18:34:17 10° S 18:40:16 89° E 18:45:49 12° NNE
GEOS 3 Rocket 3.7 18:42:00 49° NNE 18:43:25 75° NW 18:48:40 10° SW
Cosmos 2360 Rocket 4.2 18:41:31 10° SSE 18:42:21 14° SSE 18:42:21 14° SSE
Cosmos 1980 Rocket 3.4 18:47:07 10° WSW 18:52:24 38° NW 18:55:57 19° N
USA 215 3.4 18:51:53 51° NE 18:52:41 53° NNE 18:58:59 10° NW
SL-16 R/B 2.0 18:48:20 10° SSW 18:54:00 83° ESE 18:54:04 83° E
Lacrosse 4 Rocket 4.0 18:53:25 10° WNW 18:55:04 12° NW 18:56:16 11° NNW
Cosmos 2180 Rocket 4.3 18:51:33 10° N 18:57:38 75° ENE 18:57:38 75° ENE
Cosmos 2322 Rocket 2.2 18:54:07 10° SSW 18:58:55 66° S 18:58:55 66° S
SeaSat 1 4.0 18:55:26 10° S 18:59:54 34° WSW 19:04:22 10° NW
NOSS 3-2 (C) 3.9 18:58:26 10° NW 19:05:45 65° NE 19:06:16 63° ENE
Cosmos 2263 Rocket 3.5 19:06:41 10° NW 19:11:44 36° WSW 19:16:46 10° S
H-2A R/B 4.4 19:23:48 13° N 19:23:48 13° N 19:24:20 10° N
CENTAUR R/B 3.1 19:31:39 10° NW 19:38:39 68° N 19:38:39 68° N
Cosmos 1844 Rocket 4.5 19:47:56 10° NNW 19:50:05 24° NW 19:50:05 24° NW
ATLAS 2AS CENTAUR R/B 4.2 19:53:47 10° SSW 19:57:19 30° SSW 19:57:19 30° SSW
ATLAS 3B R/B 3.8 19:56:31 10° NW 20:00:12 36° NNW 20:00:12 36° NNW
